QPF
0.03 0.03 0.03 0.01 0.02 0.02 0.04 0.08 0.09 0.07 0.06 0.07 0.07 0.07 0.08 0.07 0.04 0.02 0.02 0.02 0.03 0.05 0.07 0.09 0.11 0.13 0.17 0.20 0.22 0.18 0.18 0.27 0.30 0.27 0.21 0.15 0.13 0.13 0.13 0.13 0.11 0.08 0.08 0.05
0.02 0.04 0.03 0.01 0.01 0.02 0.04 0.07 0.06 0.05 0.04 0.04 0.05 0.05 0.05 0.05 0.04 0.02 0.01 0.01 0.01 0.02 0.04 0.05 0.08 0.10 0.12 0.15 0.16 0.18 0.17 0.21 0.23 0.22 0.23 0.23 0.20 0.18 0.16 0.13 0.10 0.08 0.08 0.09
0.02 0.02 0.02 0.01 0.01 0.02 0.04 0.06 0.04 0.03 0.03 0.03 0.04 0.04 0.03 0.04 0.05 0.03 0.01 0.01 0.01 0.01 0.01 0.02 0.04 0.07 0.07 0.08 0.12 0.13 0.15 0.17 0.19 0.22 0.26 0.27 0.25 0.20 0.16 0.13 0.12 0.12 0.13 0.12
0.01 0.00 0.01 0.01 0.01 0.01 0.04 0.05 0.02 0.02 0.02 0.03 0.03 0.03 0.02 0.02 0.03 0.03 0.01 0.00 0.01 0.01 0.00 0.01 0.01 0.02 0.04 0.04 0.06 0.09 0.12 0.15 0.18 0.22 0.21 0.18 0.15 0.13 0.11 0.11 0.12 0.13 0.13 0.12
0.01 0.01 0.01 0.01 0.01 0.02 0.03 0.03 0.02 0.01 0.01 0.02 0.01 0.01 0.01 0.00 0.01 0.02 0.01 0.00 0.00 0.01 0.00 0.00 0.01 0.01 0.01 0.02 0.03 0.06 0.10 0.11 0.13 0.17 0.19 0.21 0.18 0.15 0.16 0.16 0.16 0.14 0.14 0.14
0.00 0.00 0.01 0.01 0.02 0.02 0.02 0.02 0.02 0.02 0.02 0.02 0.01 0.00 0.00 0.00 0.00 0.00 0.00 0.00 0.00 0.00 0.00 0.00 0.00 0.01 0.01 0.02 0.03 0.05 0.08 0.11 0.14 0.18 0.20 0.18 0.17 0.16 0.15 0.12 0.12 0.14 0.15 0.14
0.00 0.00 0.01 0.01 0.01 0.02 0.02 0.02 0.02 0.03 0.03 0.01 0.01 0.00 0.00 0.00 0.00 0.00 0.00 0.00 0.00 0.00 0.00 0.00 0.00 0.00 0.01 0.01 0.02 0.03 0.05 0.08 0.12 0.15 0.17 0.16 0.16 0.16 0.15 0.14 0.13 0.14 0.13 0.12
0.00 0.01 0.01 0.01 0.01 0.01 0.01 0.02 0.02 0.02 0.02 0.01 0.01 0.00 0.00 0.00 0.00 0.00 0.00 0.00 0.00 0.00 0.00 0.00 0.00 0.00 0.00 0.00 0.01 0.01 0.03 0.05 0.08 0.10 0.12 0.14 0.15 0.15 0.13 0.13 0.13 0.12 0.12 0.12
0.00 0.01 0.00 0.00 0.00 0.00 0.01 0.01 0.01 0.01 0.01 0.01 0.00 0.00 0.00 0.00 0.01 0.01 0.00 0.00 0.00 0.00 0.00 0.00 0.00 0.00 0.00 0.00 0.00 0.01 0.01 0.02 0.03 0.05 0.07 0.10 0.13 0.13 0.13 0.13 0.14 0.13 0.13 0.12
0.00 0.00 0.00 0.00 0.00 0.00 0.01 0.01 0.01 0.01 0.01 0.01 0.00 0.00 0.00 0.01 0.01 0.01 0.00 0.00 0.00 0.00 0.00 0.00 0.00 0.00 0.00 0.00 0.00 0.01 0.01 0.02 0.02 0.03 0.04 0.06 0.08 0.11 0.12 0.14 0.13 0.12 0.11 0.10
0.00 0.00 0.00 0.00 0.00 0.00 0.00 0.01 0.01 0.01 0.02 0.01 0.01 0.01 0.00 0.01 0.01 0.01 0.01 0.00 0.00 0.00 0.00 0.00 0.00 0.00 0.00 0.00 0.00 0.01 0.01 0.02 0.02 0.02 0.03 0.04 0.05 0.06 0.07 0.09 0.10 0.10 0.09 0.08
0.00 0.00 0.00 0.00 0.00 0.00 0.00 0.00 0.01 0.01 0.01 0.01 0.01 0.01 0.00 0.00 0.00 0.00 0.00 0.00 0.00 0.00 0.00 0.00 0.00 0.00 0.00 0.00 0.00 0.00 0.01 0.01 0.01 0.02 0.02 0.04 0.04 0.04 0.04 0.05 0.05 0.05 0.06 0.06
0.00 0.00 0.00 0.00 0.00 0.00 0.00 0.00 0.01 0.02 0.03 0.02 0.02 0.01 0.00 0.00 0.00 0.00 0.00 0.00 0.00 0.00 0.00 0.00 0.00 0.00 0.00 0.00 0.00 0.00 0.00 0.00 0.01 0.01 0.01 0.02 0.03 0.03 0.03 0.03 0.04 0.05 0.05 0.06
0.01 0.00 0.00 0.00 0.00 0.00 0.00 0.00 0.00 0.02 0.03 0.02 0.02 0.01 0.00 0.00 0.01 0.01 0.00 0.00 0.00 0.00 0.00 0.00 0.00 0.00 0.00 0.00 0.00 0.00 0.00 0.00 0.00 0.01 0.01 0.01 0.02 0.02 0.02 0.03 0.03 0.04 0.04 0.05
0.01 0.00 0.00 0.00 0.00 0.00 0.00 0.00 0.00 0.00 0.01 0.02 0.01 0.01 0.01 0.01 0.01 0.01 0.01 0.01 0.00 0.00 0.00 0.00 0.00 0.00 0.00 0.00 0.00 0.00 0.00 0.00 0.00 0.00 0.01 0.01 0.01 0.01 0.01 0.01 0.02 0.02 0.03 0.03
0.01 0.01 0.00 0.00 0.00 0.00 0.00 0.00 0.00 0.01 0.01 0.01 0.01 0.01 0.01 0.01 0.01 0.01 0.01 0.01 0.01 0.00 0.00 0.00 0.00 0.00 0.00 0.00 0.00 0.00 0.00 0.00 0.00 0.00 0.00 0.01 0.01 0.01 0.01 0.01 0.01 0.01 0.01 0.02
0.01 0.01 0.00 0.00 0.00 0.00 0.00 0.01 0.01 0.01 0.02 0.02 0.02 0.02 0.01 0.00 0.01 0.01 0.01 0.01 0.01 0.01 0.01 0.00 0.01 0.01 0.01 0.00 0.00 0.00 0.00 0.00 0.01 0.00 0.00 0.00 0.00 0.00 0.00 0.00 0.00 0.00 0.01 0.01
0.00 0.01 0.01 0.00 0.00 0.00 0.00 0.00 0.00 0.01 0.02 0.02 0.01 0.01 0.01 0.01 0.00 0.01 0.02 0.02 0.01 0.00 0.01 0.01 0.01 0.01 0.00 0.00 0.00 0.00 0.00 0.00 0.00 0.00 0.00 0.00 0.00 0.00 0.00 0.00 0.00 0.00 0.00 0.01
0.00 0.00 0.01 0.00 0.00 0.00 0.00 0.00 0.00 0.01 0.02 0.01 0.00 0.00 0.00 0.00 0.00 0.00 0.01 0.01 0.01 0.00 0.00 0.00 0.00 0.00 0.00 0.00 0.00 0.00 0.00 0.00 0.00 0.00 0.00 0.00 0.00 0.00 0.00 0.00 0.00 0.00 0.00 0.00
0.00 0.00 0.00 0.00 0.00 0.00 0.00 0.00 0.00 0.01 0.02 0.01 0.01 0.01 0.01 0.01 0.01 0.01 0.00 0.01 0.01 0.00 0.01 0.01 0.00 0.00 0.00 0.00 0.00 0.00 0.00 0.00 0.00 0.00 0.00 0.00 0.00 0.00 0.00 0.00 0.00 0.01 0.01 0.01
0.00 0.00 0.00 0.00 0.00 0.00 0.00 0.00 0.00 0.01 0.02 0.01 0.01 0.01 0.01 0.01 0.01 0.01 0.00 0.01 0.01 0.01 0.01 0.01 0.01 0.00 0.00 0.00 0.00 0.00 0.01 0.00 0.01 0.01 0.00 0.00 0.00 0.00 0.00 0.01 0.01 0.01 0.01 0.01
0.00 0.00 0.00 0.00 0.00 0.00 0.00 0.00 0.00 0.00 0.00 0.00 0.01 0.01 0.01 0.01 0.01 0.00 0.00 0.00 0.01 0.01 0.01 0.01 0.01 0.01 0.01 0.01 0.01 0.01 0.01 0.01 0.01 0.01 0.01 0.00 0.00 0.00 0.01 0.01 0.02 0.03 0.03 0.03
0.00 0.00 0.00 0.00 0.00 0.00 0.00 0.00 0.00 0.00 0.00 0.01 0.01 0.01 0.01 0.01 0.00 0.00 0.00 0.00 0.00 0.01 0.01 0.01 0.01 0.01 0.01 0.01 0.01 0.01 0.01 0.01 0.01 0.01 0.01 0.01 0.01 0.01 0.01 0.01 0.02 0.02 0.03 0.02
0.00 0.00 0.00 0.00 0.00 0.00 0.00 0.00 0.00 0.00 0.00 0.00 0.00 0.00 0.00 0.01 0.01 0.01 0.00 0.00 0.00 0.00 0.01 0.01 0.01 0.01 0.02 0.02 0.01 0.01 0.01 0.02 0.02 0.02 0.02 0.02 0.01 0.02 0.02 0.02 0.02 0.02 0.01 0.01
0.00 0.00 0.00 0.00 0.00 0.00 0.00 0.00 0.00 0.00 0.00 0.00 0.00 0.00 0.00 0.01 0.01 0.01 0.01 0.01 0.01 0.01 0.01 0.01 0.02 0.02 0.02 0.02 0.02 0.02 0.02 0.02 0.03 0.03 0.03 0.03 0.03 0.03 0.03 0.03 0.02 0.02 0.02 0.02
0.00 0.00 0.00 0.00 0.00 0.00 0.00 0.00 0.00 0.00 0.00 0.00 0.00 0.00 0.00 0.01 0.01 0.01 0.01 0.01 0.01 0.01 0.01 0.01 0.01 0.02 0.03 0.03 0.03 0.03 0.02 0.03 0.03 0.04 0.04 0.05 0.05 0.04 0.04 0.04 0.03 0.03 0.02 0.02
MSLP
1014.57 1014.49 1014.27 1013.95 1013.58 1013.23 1012.94 1012.77 1012.73 1012.77 1012.89 1013.01 1013.09 1013.09 1013.00 1012.81 1012.55 1012.25 1011.96 1011.69 1011.47 1011.29 1011.14 1011.02 1010.92 1010.82 1010.75 1010.73 1010.79 1010.96 1011.26 1011.71 1012.27 1012.93 1013.63 1014.33 1014.96 1015.51 1015.94 1016.26 1016.49 1016.67 1016.83 1017.01
1014.37 1014.26 1014.04 1013.73 1013.41 1013.13 1012.94 1012.87 1012.89 1012.99 1013.10 1013.17 1013.16 1013.04 1012.81 1012.50 1012.14 1011.78 1011.46 1011.21 1011.03 1010.91 1010.82 1010.75 1010.67 1010.58 1010.50 1010.45 1010.47 1010.61 1010.90 1011.34 1011.91 1012.57 1013.29 1013.98 1014.62 1015.15 1015.55 1015.85 1016.05 1016.20 1016.34 1016.51
1014.15 1014.00 1013.75 1013.46 1013.19 1012.99 1012.91 1012.93 1013.03 1013.16 1013.26 1013.27 1013.16 1012.90 1012.52 1012.05 1011.57 1011.12 1010.76 1010.50 1010.34 1010.27 1010.25 1010.24 1010.22 1010.17 1010.11 1010.07 1010.10 1010.24 1010.53 1010.96 1011.53 1012.19 1012.90 1013.58 1014.20 1014.71 1015.09 1015.37 1015.55 1015.69 1015.83 1016.00
1013.93 1013.71 1013.43 1013.16 1012.94 1012.82 1012.84 1012.96 1013.14 1013.31 1013.40 1013.35 1013.13 1012.74 1012.20 1011.58 1010.96 1010.41 1009.97 1009.68 1009.53 1009.50 1009.53 1009.59 1009.62 1009.63 1009.62 1009.62 1009.68 1009.83 1010.12 1010.55 1011.11 1011.76 1012.44 1013.10 1013.70 1014.19 1014.56 1014.83 1015.02 1015.18 1015.33 1015.52
1013.72 1013.43 1013.13 1012.85 1012.69 1012.65 1012.76 1012.98 1013.24 1013.46 1013.55 1013.45 1013.15 1012.63 1011.95 1011.19 1010.43 1009.77 1009.25 1008.91 1008.75 1008.72 1008.79 1008.89 1008.98 1009.05 1009.09 1009.13 1009.22 1009.39 1009.69 1010.11 1010.64 1011.26 1011.91 1012.54 1013.12 1013.59 1013.97 1014.26 1014.49 1014.69 1014.89 1015.13
1013.53 1013.19 1012.85 1012.60 1012.48 1012.53 1012.73 1013.05 1013.38 1013.64 1013.74 1013.62 1013.25 1012.63 1011.84 1010.96 1010.08 1009.31 1008.71 1008.30 1008.09 1008.05 1008.12 1008.25 1008.37 1008.48 1008.56 1008.64 1008.75 1008.93 1009.22 1009.62 1010.13 1010.71 1011.32 1011.93 1012.48 1012.96 1013.37 1013.70 1014.00 1014.27 1014.56 1014.88
1013.36 1012.98 1012.65 1012.43 1012.38 1012.51 1012.80 1013.20 1013.60 1013.90 1014.02 1013.88 1013.46 1012.78 1011.90 1010.93 1009.95 1009.08 1008.39 1007.91 1007.64 1007.56 1007.60 1007.72 1007.85 1007.97 1008.07 1008.17 1008.30 1008.49 1008.76 1009.14 1009.60 1010.14 1010.72 1011.29 1011.85 1012.35 1012.80 1013.21 1013.60 1013.98 1014.37 1014.79
1013.21 1012.85 1012.55 1012.39 1012.42 1012.63 1013.01 1013.48 1013.93 1014.27 1014.39 1014.24 1013.78 1013.06 1012.12 1011.07 1010.03 1009.08 1008.30 1007.74 1007.40 1007.25 1007.25 1007.33 1007.44 1007.56 1007.67 1007.78 1007.91 1008.09 1008.35 1008.69 1009.12 1009.62 1010.16 1010.72 1011.28 1011.82 1012.33 1012.83 1013.33 1013.83 1014.34 1014.86
1013.11 1012.81 1012.59 1012.53 1012.64 1012.95 1013.39 1013.91 1014.39 1014.73 1014.84 1014.67 1014.18 1013.42 1012.44 1011.34 1010.24 1009.23 1008.38 1007.74 1007.33 1007.11 1007.04 1007.07 1007.16 1007.26 1007.37 1007.48 1007.61 1007.79 1008.03 1008.35 1008.75 1009.21 1009.73 1010.28 1010.86 1011.44 1012.02 1012.61 1013.22 1013.83 1014.45 1015.08
1013.08 1012.89 1012.80 1012.85 1013.07 1013.45 1013.94 1014.48 1014.95 1015.26 1015.34 1015.12 1014.59 1013.79 1012.78 1011.65 1010.50 1009.45 1008.54 1007.85 1007.36 1007.07 1006.94 1006.93 1006.98 1007.07 1007.18 1007.30 1007.45 1007.63 1007.87 1008.18 1008.56 1009.00 1009.50 1010.05 1010.64 1011.26 1011.91 1012.58 1013.27 1013.98 1014.69 1015.39
1013.17 1013.14 1013.19 1013.37 1013.69 1014.13 1014.64 1015.15 1015.57 1015.81 1015.81 1015.52 1014.93 1014.09 1013.05 1011.89 1010.73 1009.65 1008.72 1007.98 1007.45 1007.11 1006.93 1006.89 1006.92 1007.01 1007.13 1007.28 1007.45 1007.65 1007.91 1008.22 1008.59 1009.03 1009.53 1010.07 1010.68 1011.32 1012.01 1012.73 1013.48 1014.25 1015.01 1015.74
1013.43 1013.56 1013.76 1014.06 1014.45 1014.92 1015.40 1015.85 1016.17 1016.30 1016.19 1015.81 1015.16 1014.27 1013.20 1012.05 1010.89 1009.81 1008.87 1008.11 1007.56 1007.19 1007.00 1006.94 1006.97 1007.08 1007.23 1007.41 1007.62 1007.86 1008.15 1008.48 1008.86 1009.30 1009.79 1010.34 1010.94 1011.60 1012.30 1013.04 1013.81 1014.60 1015.37 1016.10
1013.88 1014.16 1014.49 1014.88 1015.30 1015.75 1016.16 1016.49 1016.69 1016.68 1016.44 1015.96 1015.23 1014.30 1013.23 1012.09 1010.96 1009.91 1009.00 1008.26 1007.71 1007.34 1007.15 1007.09 1007.15 1007.27 1007.46 1007.68 1007.94 1008.23 1008.55 1008.91 1009.31 1009.75 1010.24 1010.79 1011.38 1012.03 1012.73 1013.46 1014.22 1014.99 1015.73 1016.44
1014.52 1014.92 1015.33 1015.75 1016.16 1016.54 1016.84 1017.03 1017.06 1016.90 1016.53 1015.95 1015.17 1014.22 1013.17 1012.08 1011.00 1010.01 1009.16 1008.46 1007.94 1007.60 1007.42 1007.37 1007.44 1007.60 1007.81 1008.07 1008.37 1008.69 1009.05 1009.43 1009.85 1010.30 1010.79 1011.32 1011.91 1012.54 1013.22 1013.93 1014.65 1015.38 1016.08 1016.73
1015.32 1015.79 1016.22 1016.62 1016.96 1017.22 1017.38 1017.40 1017.27 1016.97 1016.48 1015.82 1015.01 1014.08 1013.09 1012.07 1011.09 1010.19 1009.41 1008.78 1008.30 1007.99 1007.82 1007.79 1007.86 1008.02 1008.24 1008.52 1008.83 1009.17 1009.54 1009.94 1010.36 1010.81 1011.30 1011.84 1012.41 1013.03 1013.68 1014.36 1015.05 1015.73 1016.39 1016.99
1016.21 1016.69 1017.09 1017.41 1017.64 1017.76 1017.75 1017.61 1017.32 1016.89 1016.33 1015.63 1014.83 1013.96 1013.05 1012.15 1011.28 1010.49 1009.81 1009.25 1008.82 1008.53 1008.36 1008.31 1008.36 1008.49 1008.69 1008.94 1009.24 1009.56 1009.92 1010.31 1010.73 1011.18 1011.68 1012.21 1012.79 1013.40 1014.05 1014.72 1015.38 1016.03 1016.65 1017.21
1017.12 1017.55 1017.87 1018.08 1018.16 1018.12 1017.95 1017.66 1017.25 1016.74 1016.13 1015.44 1014.70 1013.92 1013.13 1012.36 1011.62 1010.95 1010.37 1009.87 1009.48 1009.19 1009.01 1008.92 1008.91 1008.98 1009.11 1009.29 1009.52 1009.79 1010.11 1010.47 1010.87 1011.32 1011.82 1012.37 1012.97 1013.61 1014.27 1014.94 1015.61 1016.25 1016.85 1017.38
1017.94 1018.29 1018.50 1018.57 1018.51 1018.31 1018.00 1017.59 1017.10 1016.55 1015.95 1015.31 1014.66 1014.00 1013.34 1012.71 1012.11 1011.55 1011.05 1010.61 1010.23 1009.93 1009.70 1009.54 1009.44 1009.40 1009.43 1009.50 1009.64 1009.82 1010.07 1010.38 1010.76 1011.21 1011.72 1012.30 1012.93 1013.61 1014.32 1015.03 1015.72 1016.38 1016.98 1017.52
1018.60 1018.85 1018.94 1018.88 1018.68 1018.36 1017.94 1017.46 1016.93 1016.38 1015.82 1015.26 1014.72 1014.18 1013.66 1013.16 1012.68 1012.21 1011.77 1011.36 1010.99 1010.65 1010.35 1010.10 1009.89 1009.73 1009.63 1009.58 1009.59 1009.68 1009.84 1010.09 1010.44 1010.87 1011.41 1012.02 1012.71 1013.45 1014.22 1014.99 1015.73 1016.42 1017.05 1017.60
1019.05 1019.19 1019.17 1019.00 1018.69 1018.28 1017.80 1017.28 1016.75 1016.24 1015.74 1015.28 1014.84 1014.42 1014.02 1013.62 1013.22 1012.83 1012.43 1012.03 1011.64 1011.26 1010.89 1010.55 1010.23 1009.96 1009.72 1009.55 1009.44 1009.42 1009.50 1009.69 1010.00 1010.43 1010.98 1011.64 1012.39 1013.20 1014.04 1014.87 1015.66 1016.39 1017.05 1017.61
1019.27 1019.33 1019.22 1018.96 1018.57 1018.11 1017.60 1017.09 1016.59 1016.12 1015.70 1015.32 1014.97 1014.65 1014.32 1014.00 1013.65 1013.29 1012.91 1012.52 1012.10 1011.69 1011.27 1010.85 1010.46 1010.09 1009.75 1009.47 1009.26 1009.15 1009.16 1009.29 1009.57 1009.99 1010.56 1011.26 1012.06 1012.92 1013.82 1014.70 1015.54 1016.31 1016.98 1017.54
1019.29 1019.27 1019.09 1018.77 1018.35 1017.87 1017.36 1016.87 1016.42 1016.01 1015.65 1015.34 1015.05 1014.78 1014.50 1014.20 1013.88 1013.54 1013.16 1012.76 1012.34 1011.91 1011.47 1011.02 1010.59 1010.16 1009.77 1009.43 1009.16 1008.98 1008.93 1009.02 1009.27 1009.68 1010.26 1010.97 1011.80 1012.70 1013.63 1014.54 1015.40 1016.18 1016.85 1017.41
1019.14 1019.06 1018.82 1018.47 1018.04 1017.56 1017.08 1016.63 1016.23 1015.87 1015.56 1015.29 1015.03 1014.77 1014.50 1014.21 1013.89 1013.54 1013.16 1012.77 1012.36 1011.95 1011.52 1011.09 1010.67 1010.25 1009.85 1009.49 1009.20 1008.99 1008.90 1008.96 1009.18 1009.57 1010.13 1010.84 1011.66 1012.57 1013.50 1014.41 1015.26 1016.02 1016.66 1017.19
1018.87 1018.72 1018.45 1018.08 1017.65 1017.20 1016.76 1016.36 1016.00 1015.69 1015.41 1015.15 1014.89 1014.63 1014.34 1014.03 1013.69 1013.33 1012.97 1012.60 1012.23 1011.86 1011.49 1011.13 1010.76 1010.40 1010.04 1009.71 1009.42 1009.21 1009.10 1009.14 1009.33 1009.68 1010.21 1010.88 1011.67 1012.54 1013.43 1014.30 1015.11 1015.82 1016.43 1016.91
1018.49 1018.30 1018.00 1017.62 1017.21 1016.80 1016.41 1016.05 1015.73 1015.45 1015.19 1014.93 1014.67 1014.38 1014.07 1013.73 1013.38 1013.02 1012.67 1012.34 1012.03 1011.74 1011.47 1011.20 1010.92 1010.64 1010.36 1010.08 1009.83 1009.63 1009.52 1009.53 1009.68 1009.98 1010.45 1011.06 1011.78 1012.57 1013.40 1014.20 1014.94 1015.60 1016.14 1016.57
1018.05 1017.80 1017.48 1017.11 1016.73 1016.36 1016.02 1015.72 1015.45 1015.20 1014.96 1014.70 1014.42 1014.12 1013.78 1013.43 1013.07 1012.72 1012.41 1012.13 1011.89 1011.69 1011.52 1011.36 1011.20 1011.01 1010.81 1010.60 1010.39 1010.21 1010.09 1010.06 1010.17 1010.41 1010.79 1011.31 1011.94 1012.64 1013.37 1014.08 1014.74 1015.32 1015.79 1016.17
Thickness
5514 5511 5509 5514 5520 5524 5525 5525 5528 5537 5546 5549 5553 5560 5572 5585 5591 5598 5606 5613 5620 5628 5637 5644 5650 5655 5659 5661 5662 5665 5667 5668 5666 5665 5664 5664 5664 5665 5665 5665 5665 5665 5664 5663
5513 5511 5516 5521 5524 5527 5528 5527 5530 5538 5545 5549 5551 5558 5570 5581 5588 5597 5604 5611 5617 5624 5631 5638 5643 5648 5652 5655 5657 5659 5662 5663 5663 5663 5662 5662 5661 5660 5660 5659 5659 5659 5659 5657
5514 5516 5522 5524 5524 5526 5527 5528 5532 5536 5541 5546 5548 5554 5567 5579 5586 5594 5602 5610 5615 5620 5626 5632 5636 5640 5644 5647 5650 5654 5656 5658 5658 5659 5657 5655 5653 5653 5652 5652 5653 5653 5653 5651
5516 5520 5524 5524 5524 5528 5527 5532 5536 5538 5535 5534 5543 5543 5561 5571 5580 5591 5598 5604 5610 5616 5621 5625 5629 5633 5637 5642 5645 5647 5650 5651 5653 5652 5652 5651 5650 5649 5651 5650 5648 5647 5645 5644
5518 5521 5523 5524 5526 5530 5529 5534 5535 5536 5534 5533 5538 5540 5555 5566 5575 5586 5593 5599 5605 5610 5614 5619 5623 5627 5631 5634 5637 5640 5642 5644 5646 5646 5647 5646 5645 5645 5644 5642 5641 5639 5638 5637
5520 5524 5524 5526 5528 5531 5530 5529 5529 5527 5529 5530 5536 5538 5549 5559 5573 5581 5589 5594 5598 5603 5607 5612 5616 5620 5623 5625 5627 5630 5633 5636 5638 5639 5640 5639 5639 5637 5635 5634 5632 5631 5629 5628
5519 5522 5525 5527 5527 5528 5527 5520 5513 5516 5514 5523 5532 5537 5549 5566 5572 5576 5582 5587 5592 5596 5600 5604 5608 5611 5614 5617 5619 5622 5624 5627 5629 5630 5631 5632 5631 5630 5629 5627 5625 5623 5620 5619
5512 5512 5521 5525 5526 5524 5523 5521 5512 5512 5512 5515 5528 5533 5551 5565 5568 5572 5576 5581 5585 5589 5592 5596 5600 5602 5604 5607 5609 5611 5614 5617 5619 5621 5622 5622 5622 5621 5620 5619 5617 5615 5613 5611
5511 5513 5522 5525 5527 5526 5520 5515 5516 5504 5504 5510 5522 5531 5548 5564 5565 5567 5569 5573 5576 5579 5583 5586 5590 5593 5594 5596 5598 5601 5604 5606 5608 5609 5611 5612 5612 5611 5610 5609 5607 5605 5603 5600
5519 5514 5519 5522 5525 5522 5520 5514 5506 5505 5505 5510 5518 5524 5535 5552 5554 5557 5560 5562 5565 5569 5573 5576 5578 5581 5583 5586 5588 5591 5593 5595 5597 5598 5599 5600 5600 5600 5600 5598 5596 5594 5592 5589
5521 5512 5511 5515 5516 5514 5514 5513 5506 5498 5501 5502 5509 5525 5541 5542 5545 5544 5547 5551 5554 5558 5561 5563 5565 5568 5570 5573 5576 5579 5581 5582 5583 5585 5586 5587 5587 5587 5587 5586 5584 5581 5579 5577
5517 5505 5501 5509 5513 5514 5513 5511 5503 5499 5495 5491 5495 5519 5541 5536 5536 5538 5539 5543 5545 5547 5548 5550 5553 5555 5558 5560 5563 5565 5568 5570 5570 5571 5572 5573 5573 5573 5573 5573 5572 5569 5566 5564
5518 5507 5496 5502 5504 5507 5508 5507 5503 5497 5491 5486 5493 5518 5534 5529 5530 5531 5531 5532 5533 5535 5537 5538 5540 5542 5544 5546 5549 5552 5555 5556 5558 5559 5559 5559 5559 5559 5559 5558 5557 5555 5553 5550
5521 5506 5500 5503 5506 5502 5503 5503 5499 5492 5486 5488 5496 5510 5522 5521 5520 5521 5520 5520 5521 5524 5525 5526 5527 5529 5530 5532 5535 5538 5541 5543 5545 5546 5547 5547 5547 5547 5546 5545 5544 5542 5540 5538
5519 5507 5505 5503 5505 5503 5503 5502 5498 5492 5492 5490 5500 5501 5511 5509 5508 5508 5509 5510 5512 5514 5514 5514 5514 5515 5517 5519 5522 5525 5528 5531 5533 5534 5535 5536 5535 5534 5533 5532 5531 5529 5528 5526
5512 5508 5505 5503 5502 5499 5498 5500 5497 5496 5496 5495 5496 5500 5502 5501 5500 5500 5498 5499 5500 5501 5501 5501 5502 5503 5505 5507 5510 5513 5516 5519 5521 5523 5524 5524 5523 5522 5521 5520 5518 5517 5515 5513
5503 5502 5499 5492 5493 5498 5496 5502 5498 5495 5494 5494 5493 5496 5495 5494 5493 5491 5489 5488 5488 5489 5489 5489 5490 5491 5493 5495 5499 5501 5504 5507 5510 5512 5513 5513 5512 5511 5510 5509 5506 5504 5502 5501
5500 5495 5488 5485 5490 5485 5505 5505 5500 5495 5493 5490 5489 5488 5485 5485 5485 5483 5480 5478 5477 5477 5478 5479 5479 5482 5484 5485 5488 5491 5494 5497 5499 5501 5502 5502 5502 5501 5499 5498 5496 5493 5491 5490
5499 5495 5484 5477 5476 5484 5499 5500 5494 5489 5491 5487 5484 5481 5478 5477 5477 5476 5474 5470 5467 5466 5467 5468 5469 5471 5473 5476 5478 5481 5484 5486 5489 5491 5493 5493 5492 5491 5490 5488 5486 5484 5482 5480
5490 5489 5481 5475 5479 5486 5504 5501 5495 5489 5486 5484 5479 5475 5470 5467 5464 5468 5466 5461 5459 5459 5459 5460 5461 5462 5464 5467 5469 5471 5474 5476 5479 5482 5483 5484 5483 5483 5482 5480 5477 5475 5473 5471
5488 5484 5479 5474 5473 5485 5496 5495 5491 5480 5484 5478 5472 5468 5462 5457 5456 5456 5454 5453 5452 5452 5453 5454 5454 5454 5455 5457 5459 5461 5464 5467 5470 5472 5474 5474 5474 5474 5472 5470 5468 5466 5463 5461
5491 5481 5477 5473 5471 5484 5495 5488 5483 5480 5475 5470 5465 5460 5455 5452 5450 5447 5445 5444 5445 5445 5446 5446 5446 5446 5447 5448 5450 5452 5454 5457 5459 5461 5463 5464 5464 5463 5462 5460 5457 5456 5454 5451
5488 5492 5486 5487 5494 5494 5489 5486 5482 5474 5468 5463 5457 5454 5450 5446 5442 5440 5438 5436 5436 5436 5437 5438 5438 5438 5439 5440 5442 5444 5446 5447 5449 5451 5452 5452 5452 5452 5451 5450 5448 5446 5444 5443
5486 5486 5482 5481 5487 5487 5483 5478 5474 5469 5463 5458 5453 5449 5445 5440 5437 5433 5431 5430 5429 5429 5429 5430 5431 5431 5432 5434 5435 5436 5438 5439 5440 5441 5441 5441 5441 5441 5441 5441 5440 5439 5438 5437
5490 5481 5479 5480 5484 5482 5480 5475 5470 5464 5458 5453 5448 5443 5439 5434 5431 5428 5426 5425 5424 5423 5423 5424 5424 5425 5425 5426 5427 5428 5429 5431 5431 5432 5431 5431 5432 5432 5432 5432 5432 5432 5433 5433
5483 5484 5483 5488 5486 5480 5479 5474 5467 5460 5454 5449 5443 5438 5433 5428 5424 5422 5421 5420 5419 5418 5418 5417 5417 5418 5419 5419 5420 5421 5421 5422 5423 5424 5423 5423 5424 5424 5424 5424 5423 5424 5425 5426